Location: Beneden-Haastrecht
(52.0012°N, 4.7557°E)
Time: 03:27:30
(UTC+00:00)

Cosmos 44 - Pass Details

Date: 24 October 2020
Orbit: 577 x 784 km, 65.1° (Epoch: 27 November)

Event Time Altitude Azimuth Distance (km) Brightness Sun altitude
Rises 19:19:14 0° 235° (SW) 2,890 7.0 -26.9°
Reaches altitude 10° 19:21:29 10° 240° (WSW) 2,016 6.2 -27.3°
Maximum altitude 19:25:58 55° 319° (NW) 797 3.7 -27.9°
Enters shadow 19:26:01 55° 322° (NW) 798 3.7 -27.9°
